Location: *
(18.5200°S, 46.4500°E)
Time: 22:07:18
(UTC+00:00)

Cosmos 1447 Rocket - Pass Details

Date: 19 July 2019
Orbit: 954 x 996 km, 82.9° (Epoch: 21 August)

Event Time Altitude Azimuth Distance (km) Brightness Sun altitude
Rises 15:32:25 0° 4° (N) 3,664 7.7 -13.6°
Reaches altitude 10° 15:34:57 10° 7° (N) 2,716 7.0 -14.2°
Maximum altitude 15:41:05 65° 88° (E) 1,066 4.4 -15.6°
Drops below altitude 10° 15:47:13 10° 168° (SSE) 2,713 6.6 -17.0°
Sets 15:49:45 0° 170° (S) 3,660 7.3 -17.6°
